Flag for Spain Weather past 2 weeks in Linares, Spain

Now
81 °F

Clear.


Feels Like: 80 °F
Forecast: 62 / 95 °F
Wind: 1 mph from North

Location: Granada / Aeropuerto

Current Time: Aug 28, 2014 at 2:00:54 AM

Latest Report: Aug 27, 2014 at 11:00 PM


Visibility: 10 mi

Pressure: 30.04 "Hg

Humidity: 32%

Dew point: 48 °F

Location of LinaresLocation

Historic Weather in Linares — Graph

°F

Linares temperature yesterday

Maximum temperature yesterday: 100 °F (at 3:00 PM)
Minimum temperature yesterday: 59 °F (at 8:00 AM)
Average temperature yesterday: 84 °F

Past Weeks' High & Low Weather Summary

 TemperatureHumidityPressure
High100 °F (Aug 26, 5:00 PM)88% (Aug 16, 6:00 AM)30.15 "Hg (Aug 16, 6:00 AM)
Low54 °F (Aug 20, 7:30 AM)13% (Aug 20, 4:30 PM)29.89 "Hg (Aug 18, 5:00 PM)
Average81 °F40%30.03 "Hg
* Reported Aug 12 11:00 PM — Aug 27 11:00 PM, Linares, Weather by CustomWeather, © 2014

Note: Actual official high and low records may vary slightly from our data, if they occured in-between our weather recording intervals... More about our weather records

Advertising

Linares weather history for previous 24 hours

 ConditionsComfort  
Time TempWeatherWind HumidityBarometerVisibility
11:00 PM
Aug 27
81 °FClear.1 mph32%30.04 "Hg10 mi
10:30 PM82 °FClear.No wind30%30.04 "Hg10 mi
10:00 PM84 °FClear.2 mph29%30.04 "Hg10 mi
9:30 PM86 °FSunny.6 mph27%30.01 "Hg10 mi
9:00 PM90 °FPassing clouds.5 mph24%30.01 "HgN/A
8:30 PM93 °FPassing clouds.6 mph21%30.01 "HgN/A
7:30 PM97 °FPassing clouds.10 mph19%29.98 "HgN/A
7:00 PM99 °FPassing clouds.12 mph18%29.98 "HgN/A
6:30 PM100 °FPassing clouds.12 mph17%29.98 "HgN/A
6:00 PM100 °FPassing clouds.9 mph15%29.98 "HgN/A
4:30 PM100 °FSunny.6 mph14%30.01 "Hg10 mi
4:00 PM100 °FSunny.5 mph14%30.01 "Hg10 mi
3:30 PM100 °FSunny.2 mph14%30.04 "Hg10 mi
3:00 PM100 °FSunny.3 mph14%30.04 "Hg10 mi
2:30 PM99 °FPassing clouds.3 mph18%30.04 "HgN/A
2:00 PM97 °FSunny.2 mph19%30.04 "Hg10 mi
1:30 PM95 °FSunny.1 mph22%30.04 "Hg10 mi
1:00 PM91 °FSunny.2 mph24%30.07 "Hg10 mi
12:30 PM90 °FSunny.No wind26%30.07 "Hg10 mi
12:00 PM84 °FSunny.1 mph29%30.07 "Hg10 mi
11:30 AM82 °FSunny.1 mph30%30.07 "Hg10 mi
11:00 AM79 °FSunny.1 mph37%30.09 "Hg10 mi
10:30 AM77 °FSunny.No wind42%30.07 "Hg10 mi
10:00 AM72 °FSunny.No wind50%30.07 "Hg10 mi
9:30 AM68 °FSunny.No wind56%30.07 "Hg10 mi
9:00 AM66 °FSunny.No wind52%30.07 "Hg10 mi
8:30 AM63 °FClear.1 mph59%30.07 "Hg10 mi
8:00 AM59 °FClear.No wind63%30.07 "Hg10 mi
7:30 AM61 °FClear.2 mph59%30.07 "Hg10 mi
7:00 AM61 °FClear.2 mph59%30.07 "Hg10 mi
6:30 AM61 °FClear.No wind59%30.07 "Hg10 mi
6:00 AM63 °FClear.No wind56%30.07 "Hg10 mi
Weather by CustomWeather, © 2014

See weather overviewHow to use our weather pages